Lid_Strength_Index
5 7 9 8 7 8 9 10 12 9 7 8 8 8 6 5 5 5 5 4 4 4 2 2 2 1 1 1 2 2 2 1 1 1 2 2 2 1 1 0 -0 -0 -0 -0
7 9 7 7 7 8 9 12 11 9 7 8 9 9 7 6 6 5 5 4 4 4 3 2 2 2 2 2 2 2 2 1 1 1 1 1 1 1 1 0 0 -0 -0 -0
9 8 6 7 8 9 9 10 10 10 9 8 9 10 9 6 6 5 5 4 4 4 4 3 3 2 2 2 1 2 2 2 1 1 1 1 1 1 1 1 1 0 0 -0
8 6 7 8 9 8 10 8 8 10 10 16 9 16 10 8 7 6 5 5 5 4 3 3 3 3 2 2 1 1 2 2 1 1 1 2 2 3 2 1 1 1 0 0
9 8 8 9 8 7 9 7 8 9 10 11 12 14 11 8 9 7 6 5 4 4 4 4 3 2 2 2 1 1 2 2 1 1 1 2 2 2 1 1 1 1 0 0
7 5 7 7 6 7 6 8 8 9 10 16 12 13 12 10 8 7 6 5 4 4 3 3 2 2 2 2 2 1 2 2 2 1 1 2 2 2 2 2 2 2 1 1
8 8 6 6 8 7 8 11 17 17 16 16 10 12 12 8 7 6 6 5 4 4 3 3 3 3 2 2 2 2 2 3 2 2 2 2 2 2 2 2 2 2 2 1
13 14 9 6 8 9 10 10 17 21 18 15 10 14 11 7 6 5 5 5 4 4 3 3 3 3 2 2 2 2 2 3 2 2 2 2 1 2 2 2 1 2 2 1
13 13 7 7 6 7 10 12 10 16 15 17 13 10 8 7 7 6 6 5 4 4 3 3 3 2 2 2 2 2 2 2 2 2 2 2 1 2 2 1 1 1 1 1
10 15 9 7 6 7 9 8 14 13 18 19 14 13 14 11 9 7 6 5 5 4 4 3 3 3 2 2 2 2 2 2 2 2 2 2 2 1 1 1 1 1 1 1
9 12 12 9 10 12 11 12 11 12 15 19 20 17 11 11 9 9 9 7 5 5 4 4 3 3 2 2 2 2 2 2 2 2 2 2 2 2 1 1 1 1 1 1
9 11 15 13 8 7 10 11 11 16 15 13 15 16 8 9 8 9 8 6 6 4 4 4 3 3 3 2 2 1 2 2 2 2 2 2 2 2 2 2 2 4 1 1
9 12 17 14 12 10 11 10 10 12 12 15 17 14 8 7 8 8 7 6 6 4 4 3 3 3 3 3 2 2 1 2 1 2 2 2 2 2 3 4 4 4 4 2
8 12 15 17 15 12 14 12 11 11 17 15 13 12 10 10 10 9 7 6 5 5 4 4 3 3 3 3 3 2 2 1 1 2 2 3 2 2 3 4 3 2 2 5
9 14 12 12 11 11 12 12 11 13 12 15 14 13 10 9 9 8 6 6 6 5 5 4 4 4 3 3 3 2 2 2 1 2 2 2 2 2 2 2 3 2 2 2
9 14 13 14 11 10 12 13 13 12 12 12 12 13 8 7 7 7 7 7 7 6 5 5 4 4 4 3 3 3 2 3 2 2 2 2 2 2 2 3 2 3 2 2
11 12 14 16 12 12 17 14 13 13 12 13 15 12 10 11 10 9 7 7 7 6 5 5 4 4 4 3 3 3 3 2 2 2 2 3 2 2 2 2 2 2 2 2
11 12 14 16 14 20 14 11 12 13 13 13 13 13 12 12 11 10 9 9 8 6 6 5 4 4 3 3 3 2 2 2 3 2 2 3 3 3 2 2 2 2 2 2
8 12 15 17 17 14 14 13 14 15 15 12 14 13 13 12 12 12 11 9 8 7 7 5 5 5 4 3 3 3 3 3 3 3 3 3 3 3 2 3 3 3 4 5
8 10 14 15 18 20 16 12 10 11 16 12 13 13 14 13 16 15 12 11 9 7 6 6 5 5 4 3 2 3 3 3 3 3 3 2 2 3 3 4 5 4 4 6
12 12 15 15 17 15 13 12 11 17 16 12 12 12 14 15 15 13 12 11 9 8 8 7 6 6 5 4 3 4 3 4 3 3 2 2 2 3 4 4 5 5 6 7
14 14 14 14 16 18 12 13 16 13 11 11 12 12 13 13 12 13 12 12 11 10 8 8 8 7 5 5 4 5 5 3 3 4 4 4 4 4 4 4 5 6 7 7
13 11 14 14 14 11 11 12 11 10 11 12 12 11 12 12 12 12 13 12 11 10 9 8 9 8 8 7 6 7 6 4 5 6 6 6 6 5 5 6 6 8 7 7
9 8 11 11 11 11 12 11 11 10 11 11 10 10 10 11 12 12 12 12 11 10 9 9 10 11 10 8 8 7 7 5 6 7 7 7 8 8 7 7 7 7 7 8
8 9 11 10 11 11 11 12 11 11 10 11 10 9 10 11 11 11 11 11 11 11 10 11 11 11 11 10 9 7 7 7 8 8 9 9 11 12 13 14 12 10 12 8
7 9 11 12 12 12 12 12 10 11 11 11 11 12 10 10 10 10 11 11 11 11 11 11 11 11 11 11 10 10 9 7 9 10 10 10 11 11 11 13 15 15 14 14